Вернуться в каталог

STARLINK-35372

АктивенСвязьVLEO
NORAD 66476·PAYLOAD·🇺🇸 United States

Запущен Nov 15, 2025 с Cape Canaveral Space Force Station

Loading…

Ближайшие Пролёты (ближайшие 24 часа)

TLE

СвежийSource: CelesTrak SupGP

Эпоха: Sep 14, 2026, 21:20 UTC

1 66476C 25262W   26257.88937500 -.00022460  00000+0 -81381-3 0  2574
2 66476  43.0011 307.7329 0001482 273.7413   0.8994 15.27576877    19

Отслеживайте STARLINK-35372 в реальном времени с AllMySat

Download on the App Store